TimeAEST,TemperatureF,Dew PointF,Humidity,Sea Level PressureIn,VisibilityMPH,Wind Direction,Wind SpeedMPH,Gust SpeedMPH,PrecipitationIn,Events,Conditions,WindDirDegrees,DateUTC
12:00 AM,66,65,94,29.87,,Calm,Calm,,,,,,2012-10-09 14:00:00
12:00 AM,66.2,64.4,94,29.86,6.2,Calm,Calm,-,N/A,,Partly Cloudy,0,2012-10-09 14:00:00
12:30 AM,66.2,66.2,100,29.86,6.2,Calm,Calm,-,N/A,,Partly Cloudy,0,2012-10-09 14:30:00
1:00 AM,67,66,94,29.87,,Calm,Calm,,,,,,2012-10-09 15:00:00
1:00 AM,68.0,66.2,94,29.86,6.2,Calm,Calm,-,N/A,,Partly Cloudy,0,2012-10-09 15:00:00
1:30 AM,68.0,66.2,94,29.86,6.2,Calm,Calm,-,N/A,,Partly Cloudy,0,2012-10-09 15:30:00
2:00 AM,66.2,64.4,94,29.86,6.2,Calm,Calm,-,N/A,,Partly Cloudy,0,2012-10-09 16:00:00
2:30 AM,66.2,64.4,94,29.86,6.2,Calm,Calm,-,N/A,,Partly Cloudy,0,2012-10-09 16:30:00
3:00 AM,66,65,98,29.86,,Calm,Calm,,,,,,2012-10-09 17:00:00
3:00 AM,66.2,66.2,100,29.86,6.2,Calm,Calm,-,N/A,,Partly Cloudy,0,2012-10-09 17:00:00
3:30 AM,64.4,64.4,100,29.83,6.2,Calm,Calm,-,N/A,,Partly Cloudy,0,2012-10-09 17:30:00
4:00 AM,65,65,98,29.86,,Calm,Calm,,,,,,2012-10-09 18:00:00
4:00 AM,66.2,64.4,94,29.83,6.2,Calm,Calm,-,N/A,,Partly Cloudy,0,2012-10-09 18:00:00
4:30 AM,66.2,64.4,94,29.86,6.2,Calm,Calm,-,N/A,Fog,Shallow Fog,0,2012-10-09 18:30:00
5:00 AM,64.4,64.4,100,29.86,6.2,Calm,Calm,-,N/A,Fog,Shallow Fog,0,2012-10-09 19:00:00
5:30 AM,66.2,64.4,94,29.89,6.2,Calm,Calm,-,N/A,Fog,Shallow Fog,0,2012-10-09 19:30:00
6:00 AM,65,65,100,29.89,19,Calm,Calm,,,,Partly Cloudy,,2012-10-09 20:00:00
6:00 AM,66.2,64.4,94,29.89,6.2,Calm,Calm,-,N/A,,Partly Cloudy,0,2012-10-09 20:00:00
6:30 AM,68.0,66.2,94,29.89,6.2,ESE,4.6,-,N/A,,Partly Cloudy,120,2012-10-09 20:30:00
7:00 AM,71,66,80,29.92,,SSE,2.3,,,,,150,2012-10-09 21:00:00
7:00 AM,71.6,66.2,83,29.92,6.2,SSE,2.3,-,N/A,,Partly Cloudy,150,2012-10-09 21:00:00
7:30 AM,75.2,68.0,78,29.92,6.2,SSE,8.1,-,N/A,,Partly Cloudy,150,2012-10-09 21:30:00
8:00 AM,77.0,66.2,69,29.92,6.2,SE,8.1,-,N/A,,Partly Cloudy,130,2012-10-09 22:00:00
8:30 AM,78.8,68.0,69,29.95,6.2,SE,6.9,-,N/A,,Partly Cloudy,130,2012-10-09 22:30:00
9:00 AM,81,67,54,29.95,19,NE,2.3,,,,Partly Cloudy,50,2012-10-09 23:00:00
9:00 AM,80.6,68.0,65,29.95,6.2,NE,2.3,-,N/A,,Partly Cloudy,50,2012-10-09 23:00:00
9:30 AM,82.4,66.2,58,29.95,6.2,ENE,5.8,-,N/A,,Partly Cloudy,70,2012-10-09 23:30:00
10:00 AM,82,64,45,29.95,,NE,6.9,,,,,40,2012-10-10 00:00:00
10:00 AM,82.4,64.4,54,29.95,6.2,NE,6.9,-,N/A,,Partly Cloudy,40,2012-10-10 00:00:00
10:30 AM,82.4,66.2,58,29.92,6.2,ENE,6.9,-,N/A,,Partly Cloudy,60,2012-10-10 00:30:00
11:00 AM,82.4,66.2,58,29.92,6.2,NE,6.9,-,N/A,,Partly Cloudy,50,2012-10-10 01:00:00
11:30 AM,82.4,68.0,62,29.92,6.2,NE,8.1,-,N/A,,Partly Cloudy,50,2012-10-10 01:30:00
12:00 PM,83,67,50,29.91,19,NE,8.1,,,,Partly Cloudy,40,2012-10-10 02:00:00
12:00 PM,82.4,68.0,62,29.89,6.2,NE,8.1,-,N/A,,Partly Cloudy,40,2012-10-10 02:00:00
12:30 PM,82.4,66.2,58,29.89,6.2,North,9.2,-,N/A,,Partly Cloudy,10,2012-10-10 02:30:00
1:00 PM,82,67,50,29.90,,NNE,9.2,,,,,20,2012-10-10 03:00:00
1:00 PM,82.4,66.2,58,29.89,6.2,NNE,9.2,-,N/A,,Partly Cloudy,20,2012-10-10 03:00:00
1:30 PM,82.4,68.0,62,29.86,6.2,NNE,8.1,-,N/A,,Partly Cloudy,30,2012-10-10 03:30:00
2:00 PM,82.4,68.0,62,29.86,6.2,NNE,9.2,-,N/A,,Partly Cloudy,20,2012-10-10 04:00:00
2:30 PM,82.4,68.0,62,29.86,6.2,NNE,9.2,-,N/A,,Partly Cloudy,20,2012-10-10 04:30:00
3:00 PM,82,69,57,29.86,19,NNE,9.2,,,,Partly Cloudy,20,2012-10-10 05:00:00
3:00 PM,82.4,69.8,66,29.86,6.2,NNE,9.2,-,N/A,,Partly Cloudy,20,2012-10-10 05:00:00
3:30 PM,80.6,68.0,65,29.83,6.2,NNE,8.1,-,N/A,,Partly Cloudy,20,2012-10-10 05:30:00
4:00 PM,81,69,58,29.86,,North,9.2,,,,,10,2012-10-10 06:00:00
4:00 PM,80.6,68.0,65,29.83,6.2,North,9.2,-,N/A,,Partly Cloudy,10,2012-10-10 06:00:00
4:30 PM,80.6,68.0,65,29.83,6.2,North,8.1,-,N/A,,Partly Cloudy,360,2012-10-10 06:30:00
5:00 PM,80.6,68.0,65,29.86,6.2,NNE,6.9,-,N/A,,Partly Cloudy,30,2012-10-10 07:00:00
5:30 PM,78.8,69.8,74,29.86,6.2,NNE,6.9,-,N/A,,Partly Cloudy,20,2012-10-10 07:30:00
6:00 PM,77,69,70,29.87,,NNE,5.8,,,,,30,2012-10-10 08:00:00
6:00 PM,77.0,69.8,78,29.86,6.2,NNE,5.8,-,N/A,,Partly Cloudy,30,2012-10-10 08:00:00
6:30 PM,77.0,69.8,78,29.89,6.2,NNE,3.5,-,N/A,,Partly Cloudy,30,2012-10-10 08:30:00
7:00 PM,74,69,81,29.90,,Calm,Calm,,,,,,2012-10-10 09:00:00
7:00 PM,75.2,69.8,83,29.89,6.2,Calm,Calm,-,N/A,,Partly Cloudy,0,2012-10-10 09:00:00
7:30 PM,75.2,69.8,83,29.89,6.2,Calm,Calm,-,N/A,,Partly Cloudy,0,2012-10-10 09:30:00
8:00 PM,75.2,69.8,83,29.89,6.2,NE,1.2,-,N/A,,Scattered Clouds,40,2012-10-10 10:00:00
8:30 PM,73.4,69.8,88,29.92,6.2,Calm,Calm,-,N/A,,Partly Cloudy,0,2012-10-10 10:30:00
9:00 PM,73,69,84,29.92,,Calm,Calm,,,,,,2012-10-10 11:00:00
9:00 PM,73.4,69.8,88,29.92,6.2,Calm,Calm,-,N/A,,Partly Cloudy,0,2012-10-10 11:00:00
9:30 PM,71.6,69.8,94,29.92,6.2,Calm,Calm,-,N/A,,Partly Cloudy,0,2012-10-10 11:30:00
10:00 PM,71.6,69.8,94,29.92,6.2,Calm,Calm,-,N/A,,Partly Cloudy,0,2012-10-10 12:00:00
10:30 PM,71.6,68.0,88,29.92,-9999.0,Calm,Calm,-,N/A,,Clear,0,2012-10-10 12:30:00
11:00 PM,71.6,69.8,94,29.92,-9999.0,Calm,Calm,-,N/A,,Clear,0,2012-10-10 13:00:00
11:30 PM,71.6,69.8,94,29.89,-9999.0,Calm,Calm,-,N/A,,Clear,0,2012-10-10 13:30:00